EW7112 Weather Reports


Display with metric or nautical units.
time (UTC)temp
F
wind
direction
speed
MPH
gust
MPH
rain 1hr
in
rain 24hr
in
rain mn
in
humidity
%
barometer
mb
20240304153052 0 173 4.0 14.0 0.00 0.00 0.00 990.0
20240304151545 0 235 5.0 13.0 0.00 0.00 0.00 990.0
20240304150040 0 256 4.0 11.0 0.00 0.00 0.00 990.0
20240304144535 0 148 4.0 10.0 0.00 0.00 0.00 990.0
20240304143031 0 155 4.0 10.0 0.00 0.00 0.00 990.0
20240304141527 0 182 4.0 12.0 0.00 0.00 0.00 990.0
20240304140025 0 165 3.0 10.0 0.00 0.00 0.00 989.7
20240304134532 0 96 3.0 14.0 0.00 0.00 0.00 989.5
20240304133035 0 220 2.0 7.0 0.00 0.00 0.00 989.4
20240304131509 0 109 4.0 8.0 0.00 0.00 0.00 989.2
20240304130005 0 105 3.0 10.0 0.00 0.00 0.00 989.2
20240304124611 0 196 2.0 11.0 0.00 0.00 0.00 989.1
20240304123113 0 173 2.0 8.0 0.00 0.00 0.00 989.1
20240304121551 0 124 1.0 5.0 0.00 0.00 0.00 989.1
20240304120104 0 179 1.0 8.0 0.00 0.00 0.00 989.0
20240304114545 0 178 2.0 8.0 0.00 0.00 0.00 988.9
20240304113043 0 213 2.0 9.0 0.00 0.00 0.00 988.7
20240304111533 0 167 2.0 9.0 0.00 0.00 0.00 988.6
20240304110029 0 242 3.0 12.0 0.00 0.00 0.00 988.5
20240304104524 0 203 3.0 9.0 0.00 0.00 0.00 988.5
20240304103020 0 169 3.0 9.0 0.00 0.00 0.00 988.4
20240304101516 0 113 1.0 7.0 0.00 0.00 0.00 988.2
20240304100111 0 205 4.0 9.0 0.00 0.00 0.00 988.2
20240304094507 0 192 3.0 10.0 0.00 0.00 0.00 988.1
20240304093002 0 212 1.0 11.0 0.00 0.00 0.00 988.1
20240304091558 0 214 3.0 16.0 0.00 0.00 0.00 988.1
20240304090054 0 222 4.0 12.0 0.00 0.00 0.00 988.1
20240304084548 0 144 1.0 8.0 0.00 0.00 0.00 987.9
20240304083053 0 192 3.0 8.0 0.00 0.00 0.00 987.9
20240304081543 0 101 4.0 9.0 0.00 0.00 0.00 988.0
20240304080036 0 122 2.0 9.0 0.00 0.00 0.00 988.1
20240304074531 0 212 4.0 10.0 0.00 0.00 0.00 988.1
20240304073039 0 157 4.0 12.0 0.00 0.00 0.00 988.0
20240304071532 0 229 5.0 13.0 0.00 0.00 0.00 988.1
20240304070018 0 243 4.0 8.0 0.00 0.00 0.00 988.0
20240304064525 0 224 3.0 10.0 0.00 0.00 0.00 988.3
20240304063009 0 207 4.0 13.0 0.00 0.00 0.00 988.4
20240304061504 0 248 2.0 11.0 0.00 0.00 0.00 988.2
20240304060101 0 108 2.0 7.0 0.00 0.00 0.00 988.1
20240304054611 0 259 2.0 9.0 0.00 0.00 0.00 988.1
20240304053051 0 217 3.0 9.0 0.00 0.00 0.00 988.1
20240304051549 0 150 3.0 9.0 0.00 0.00 0.00 988.1
20240304050104 0 116 1.0 11.0 0.00 0.00 0.00 988.1
20240304044550 0 107 3.0 17.0 0.00 0.00 0.00 988.0
20240304043032 0 222 4.0 10.0 0.00 0.00 0.00 987.9
20240304041533 0 252 2.0 10.0 0.00 0.00 0.00 988.0
20240304040029 0 193 3.0 11.0 0.00 0.00 0.00 987.9
20240304034519 0 221 3.0 11.0 0.00 0.00 0.00 987.8
20240304033019 0 221 4.0 8.0 0.00 0.00 0.00 987.8
20240304031510 0 206 3.0 9.0 0.00 0.00 0.00 987.8
20240304030024 0 132 2.0 8.0 0.00 0.00 0.00 987.8
20240304024502 0 136 2.0 7.0 0.00 0.00 0.00 987.8
20240304023057 0 183 2.0 10.0 0.00 0.00 0.00 987.8
20240304021554 0 140 3.0 9.0 0.00 0.00 0.00 987.8
20240304020049 0 151 3.0 11.0 0.00 0.00 0.00 987.7
20240304014543 0 143 3.0 8.0 0.00 0.00 0.00 987.7
20240304013039 0 140 1.0 7.0 0.00 0.00 0.00 987.6
20240304011537 0 153 3.0 7.0 0.00 0.00 0.00 987.6
20240304010035 0 148 4.0 10.0 0.00 0.00 0.00 987.5
20240304004527 0 143 2.0 9.0 0.00 0.00 0.00 987.4
20240304003027 0 138 3.0 9.0 0.00 0.00 0.00 987.3
20240304001517 0 142 3.0 9.0 0.00 0.00 0.00 987.2
20240304000014 0 114 3.0 7.0 0.00 0.00 0.00 987.2
20240303234508 0 266 3.0 12.0 0.00 0.00 0.00 987.2
20240303233003 0 103 3.0 12.0 0.00 0.00 0.00 986.9
20240303231600 0 93 5.0 12.0 0.00 0.00 0.00 986.9
20240303230058 0 123 5.0 18.0 0.00 0.00 0.00 986.9
20240303224550 0 241 4.0 12.0 0.00 0.00 0.00 986.9
20240303223048 0 205 5.0 16.0 0.00 0.00 0.00 986.8
20240303221546 0 95 6.0 15.0 0.00 0.00 0.00 987.0
20240303220045 0 120 6.0 17.0 0.00 0.00 0.00 986.8
20240303214545 0 130 4.0 12.0 0.00 0.00 0.00 986.9
20240303213028 0 120 4.0 12.0 0.00 0.00 0.00 987.2
20240303211523 0 160 4.0 13.0 0.00 0.00 0.00 987.2
20240303210018 0 115 5.0 15.0 0.00 0.00 0.00 987.4
20240303204514 0 172 5.0 14.0 0.00 0.00 0.00 987.5
20240303203012 0 221 4.0 17.0 0.00 0.00 0.00 987.7
20240303201508 0 214 4.0 14.0 0.00 0.00 0.00 988.0
20240303200001 0 193 4.0 10.0 0.00 0.00 0.00 988.4
20240303194621 0 84 4.0 12.0 0.00 0.00 0.00 988.6
20240303193052 0 128 5.0 13.0 0.00 0.00 0.00 988.8
20240303191547 0 213 5.0 12.0 0.00 0.00 0.00 989.1
20240303190042 0 258 5.0 17.0 0.00 0.00 0.00 989.2
20240303184540 0 108 3.0 13.0 0.00 0.00 0.00 989.4
20240303183035 0 129 4.0 11.0 0.00 0.00 0.00 989.6
20240303181534 0 195 5.0 12.0 0.00 0.00 0.00 989.9
20240303180032 0 101 5.0 10.0 0.00 0.00 0.00 990.1
20240303174533 0 210 5.0 13.0 0.00 0.00 0.00 990.5
20240303173016 0 207 3.0 9.0 0.00 0.00 0.00 990.7
20240303171511 0 184 6.0 18.0 0.00 0.00 0.00 990.9
20240303170010 0 218 8.0 17.0 0.00 0.00 0.00 990.9
20240303164506 0 105 4.0 13.0 0.00 0.00 0.00 991.0
20240303163101 0 122 5.0 12.0 0.00 0.00 0.00 991.1
20240303161555 0 175 5.0 12.0 0.00 0.00 0.00 991.2
20240303160101 0 157 5.0 14.0 0.00 0.00 0.00 991.2
20240303154554 0 148 5.0 15.0 0.00 0.00 0.00 991.1